Home   Weather   Oxnard   Past weeks

Flag for USA Past Weather in Oxnard, California, USA — Yesterday and Last 2 Weeks

Now
74 °F

Clear.


Feels Like: 76 °F
Forecast: 67 / 86 °F
Wind: 7 mph from Southeast

Location: Oxnard Airport

Current Time: Sep 27, 2016 at 6:53:18 AM

Latest Report: Sep 27, 2016 at 5:51 AM


Visibility: 10 mi

Pressure: 29.82 "Hg

Humidity: 25%

Dew Point: 36 °F

Location of OxnardLocation

Past Weather in Oxnard — Graph

°F

Oxnard Temperature Yesterday

Maximum temperature yesterday: 102 °F (at 11:51 AM)
Minimum temperature yesterday: 65 °F (at 1:51 AM)
Average temperature yesterday: 81 °F

High & Low Weather Summary for the Past Weeks

 TemperatureHumidityPressure
High102 °F (Sep 26, 11:51 AM)100% (Sep 18, 6:51 AM)30.08 "Hg (Sep 18, 6:51 AM)
Low54 °F (Sep 14, 5:51 AM)8% (Sep 25, 11:51 AM)29.81 "Hg (Sep 22, 4:51 PM)
Average68 °F67%29.93 "Hg
* Reported Sep 12 5:51 AM — Sep 27 5:51 AM, Oxnard, Weather by CustomWeather, © 2016

Note: Actual official high and low records may vary slightly from our data, if they occured in-between our weather recording intervals... More about our weather records

Advertising

Oxnard Weather History for the Previous 24 Hours

Scroll right to see more
 ConditionsComfort  
Time TempWeatherWind HumidityBarometerVisibility
5:51 AM
Tue, Sep 27
74 °FClear.7 mph25%29.82 "Hg10 mi
4:51 AM73 °FClear.No wind29%29.81 "Hg10 mi
3:51 AM69 °FClear.5 mph53%29.81 "Hg10 mi
2:51 AM68 °FClear.5 mph47%29.82 "Hg10 mi
1:51 AM68 °FClear.No wind47%29.84 "Hg10 mi
12:51 AM74 °FClear.3 mph45%29.85 "Hg10 mi
11:51 PM
Mon, Sep 26
74 °FClear.6 mph41%29.86 "Hg10 mi
10:51 PM70 °FClear.No wind66%29.85 "Hg10 mi
9:51 PM73 °FClear.No wind62%29.86 "Hg10 mi
8:51 PM72 °FClear.3 mph61%29.86 "Hg10 mi
7:51 PM75 °FClear.10 mph55%29.84 "Hg10 mi
6:51 PM77 °FClear.10 mph50%29.84 "Hg10 mi
5:51 PM86 °FSunny.10 mph32%29.83 "Hg10 mi
4:51 PM92 °FSunny.10 mph22%29.83 "Hg10 mi
3:51 PM94 °FSunny.10 mph19%29.84 "Hg10 mi
2:51 PM93 °FSunny.12 mph18%29.87 "Hg10 mi
1:51 PM92 °FSunny.12 mph21%29.89 "Hg10 mi
12:51 PM92 °FSunny.12 mph20%29.90 "Hg10 mi
11:51 AM102 °FSunny.10 mph10%29.91 "Hg10 mi
10:51 AM100 °FSunny.15 mph10%29.93 "Hg10 mi
9:51 AM93 °FSunny.8 mph14%29.94 "Hg10 mi
8:51 AM86 °FSunny.8 mph16%29.95 "Hg10 mi
7:51 AM78 °FSunny.6 mph20%29.94 "Hg10 mi
6:51 AM75 °FSunny.9 mph21%29.93 "Hg10 mi
Weather by CustomWeather, © 2016

See weather overviewHow to use our weather pages